TimeEEST,TemperatureF,Dew PointF,Humidity,Sea Level PressureIn,VisibilityMPH,Wind Direction,Wind SpeedMPH,Gust SpeedMPH,PrecipitationIn,Events,Conditions,WindDirDegrees,DateUTC
12:00 AM,73,52,37,29.85,6,North,6.9,,,,,350,2012-10-25 21:00:00
12:00 AM,73.4,51.8,47,29.86,-9999.0,North,6.9,-,N/A,,Clear,350,2012-10-25 21:00:00
3:00 AM,70,51,41,29.85,6,North,6.9,,,,,350,2012-10-26 00:00:00
3:00 AM,69.8,51.8,53,29.86,-9999.0,North,6.9,-,N/A,,Clear,350,2012-10-26 00:00:00
6:00 AM,66,54,56,29.88,6,North,6.9,,,,,0,2012-10-26 03:00:00
6:00 AM,66.2,53.6,64,29.89,-9999.0,North,6.9,-,N/A,,Clear,360,2012-10-26 03:00:00
9:00 AM,70,53,44,29.89,6,Calm,Calm,,,,,,2012-10-26 06:00:00
9:00 AM,69.8,53.6,56,29.89,-9999.0,Calm,Calm,-,N/A,,Clear,0,2012-10-26 06:00:00
10:00 AM,75.2,53.6,47,29.89,-9999.0,Calm,Calm,-,N/A,,Clear,0,2012-10-26 07:00:00
11:00 AM,78.8,53.6,42,29.89,-9999.0,Calm,Calm,-,N/A,,Clear,0,2012-10-26 08:00:00
12:00 PM,82,53,27,29.89,6,NNW,8.1,,,,,340,2012-10-26 09:00:00
12:00 PM,82.4,53.6,37,29.89,-9999.0,NNW,8.1,-,N/A,,Clear,340,2012-10-26 09:00:00
1:00 PM,84.2,53.6,35,29.89,-9999.0,NNW,8.1,-,N/A,,Clear,340,2012-10-26 10:00:00
2:00 PM,87.8,53.6,31,29.83,-9999.0,NNW,8.1,-,N/A,,Clear,340,2012-10-26 11:00:00
3:00 PM,89,51,18,29.81,6,Calm,Calm,,,,Clear,,2012-10-26 12:00:00
3:00 PM,89.6,51.8,27,29.83,-9999.0,Calm,Calm,-,N/A,,Clear,0,2012-10-26 12:00:00
4:00 PM,89.6,51.8,27,29.83,-9999.0,Calm,Calm,-,N/A,,Clear,0,2012-10-26 13:00:00
6:00 PM,86,51,20,29.81,6,Calm,Calm,,,,Clear,,2012-10-26 15:00:00
6:00 PM,86.0,50.0,29,29.83,-9999.0,Calm,Calm,-,N/A,,Clear,0,2012-10-26 15:00:00
7:00 PM,84.2,50.0,30,29.83,-9999.0,North,5.8,-,N/A,,Clear,10,2012-10-26 16:00:00
8:00 PM,82.4,50.0,32,29.83,-9999.0,North,5.8,-,N/A,,Clear,10,2012-10-26 17:00:00
9:00 PM,79,51,27,29.84,6,North,5.8,,,,,350,2012-10-26 18:00:00
9:00 PM,78.8,51.8,39,29.86,-9999.0,North,5.8,-,N/A,,Clear,350,2012-10-26 18:00:00
10:00 PM,77.0,51.8,41,29.86,-9999.0,North,5.8,-,N/A,,Clear,350,2012-10-26 19:00:00